• In Belgium
  • List of Countries
  • For 7 days
  • Water Temperature
  • Satellite Maps
  • Weather Map
  • Weather Widgets
  • user-avatar
    Login

    Hourly Weather Mechlin

    Today, 17 October, Wednesday

    Time Temperature Precipitation Wind Pressure Humidity
    00:00 +16°C° 0 mm 2 mps 763 mmHg 73%
    01:00 +16°C° 0 mm 2 mps 763 mmHg 77%
    02:00 +15°C° 0 mm 1 mps 763 mmHg 80%
    03:00 +15°C° 0 mm 1 mps 763 mmHg 84%
    04:00 +14°C° 0 mm 1 mps 763 mmHg 86%
    05:00 +14°C° 0 mm 1 mps 763 mmHg 87%
    06:00 +14°C° 0 mm 1 mps 763 mmHg 89%
    07:00 +15°C° 0 mm 1 mps 763 mmHg 85%
    08:00 +18°C° 0 mm 1 mps 763 mmHg 80%
    09:00 +19°C° 0 mm 1 mps 764 mmHg 75%
    10:00 +20°C° 0 mm 1 mps 763 mmHg 71%
    11:00 +21°C° 0 mm 1 mps 763 mmHg 67%
    12:00 +22°C° 0 mm 1 mps 763 mmHg 63%
    13:00 +21°C° 0 mm 2 mps 763 mmHg 63%
    14:00 +21°C° 0 mm 2 mps 763 mmHg 64%
    15:00 +20°C° 0 mm 2 mps 763 mmHg 65%
    16:00 +19°C° 0 mm 2 mps 763 mmHg 71%
    17:00 +17°C° 0 mm 2 mps 764 mmHg 76%
    18:00 +16°C° 0 mm 3 mps 764 mmHg 82%
    19:00 +15°C° 0 mm 2 mps 764 mmHg 84%
    20:00 +14°C° 0 mm 2 mps 765 mmHg 86%
    21:00 +14°C° 0 mm 2 mps 765 mmHg 88%
    22:00 +14°C° 0 mm 2 mps 765 mmHg 89%
    23:00 +13°C° 0 mm 2 mps 765 mmHg 90%

    Tomorrow, 18 October, Thursday

    Time Temperature Precipitation Wind Pressure Humidity
    00:00 +13°C° 0 mm 2 mps 766 mmHg 91%
    01:00 +13°C° 0 mm 2 mps 766 mmHg 91%
    02:00 +13°C° 0 mm 2 mps 766 mmHg 92%
    03:00 +13°C° 0 mm 2 mps 766 mmHg 92%
    04:00 +12°C° 0 mm 2 mps 766 mmHg 93%
    05:00 +12°C° 0 mm 2 mps 766 mmHg 94%
    06:00 +12°C° 0 mm 2 mps 766 mmHg 94%
    07:00 +12°C° 0 mm 3 mps 766 mmHg 90%
    08:00 +13°C° 0 mm 4 mps 767 mmHg 86%
    09:00 +14°C° 0 mm 4 mps 767 mmHg 81%
    10:00 +15°C° 0 mm 4 mps 767 mmHg 77%
    11:00 +17°C° 0 mm 4 mps 767 mmHg 73%
    12:00 +18°C° 0 mm 4 mps 767 mmHg 69%
    13:00 +17°C° 0 mm 4 mps 767 mmHg 70%
    14:00 +17°C° 0 mm 4 mps 767 mmHg 70%
    15:00 +17°C° 0 mm 4 mps 766 mmHg 70%
    16:00 +15°C° 0 mm 4 mps 767 mmHg 74%
    17:00 +14°C° 0 mm 4 mps 767 mmHg 78%
    18:00 +13°C° 0 mm 3 mps 767 mmHg 82%
    19:00 +12°C° 0 mm 3 mps 767 mmHg 84%
    20:00 +12°C° 0 mm 3 mps 768 mmHg 85%
    21:00 +11°C° 0 mm 3 mps 768 mmHg 86%
    22:00 +11°C° 0 mm 3 mps 768 mmHg 87%
    23:00 +10°C° 0 mm 3 mps 768 mmHg 87%

    Day after tomorrow, 19 October, Friday

    Time Temperature Precipitation Wind Pressure Humidity
    00:00 +10°C° 0 mm 3 mps 768 mmHg 88%
    01:00 +9°C° 0 mm 3 mps 768 mmHg 88%
    02:00 +9°C° 0 mm 3 mps 768 mmHg 89%
    03:00 +8°C° 0 mm 3 mps 768 mmHg 89%
    04:00 +8°C° 0 mm 3 mps 768 mmHg 90%
    05:00 +8°C° 0 mm 3 mps 768 mmHg 91%
    06:00 +8°C° 0 mm 3 mps 768 mmHg 92%
    07:00 +9°C° 0 mm 3 mps 768 mmHg 87%
    08:00 +10°C° 0 mm 3 mps 768 mmHg 81%
    09:00 +12°C° 0 mm 3 mps 768 mmHg 76%
    10:00 +13°C° 0 mm 3 mps 768 mmHg 71%
    11:00 +16°C° 0 mm 3 mps 768 mmHg 66%
    12:00 +17°C° 0 mm 2 mps 768 mmHg 62%
    13:00 +17°C° 0 mm 3 mps 768 mmHg 61%
    14:00 +18°C° 0 mm 3 mps 768 mmHg 61%
    15:00 +18°C° 0 mm 3 mps 768 mmHg 60%
    16:00 +16°C° 0 mm 3 mps 768 mmHg 64%
    17:00 +13°C° 0 mm 3 mps 769 mmHg 68%
    18:00 +12°C° 0 mm 3 mps 769 mmHg 71%
    19:00 +11°C° 0 mm 3 mps 769 mmHg 72%
    20:00 +10°C° 0 mm 3 mps 770 mmHg 72%
    21:00 +10°C° 0 mm 2 mps 770 mmHg 73%
    22:00 +9°C° 0 mm 2 mps 770 mmHg 73%
    23:00 +9°C° 0 mm 2 mps 770 mmHg 73%

    20 October, Saturday

    Time Temperature Precipitation Wind Pressure Humidity
    00:00 +9°C° 0 mm 2 mps 770 mmHg 73%
    01:00 +9°C° 0 mm 2 mps 770 mmHg 74%
    02:00 +8°C° 0 mm 2 mps 771 mmHg 75%
    03:00 +8°C° 0 mm 2 mps 771 mmHg 76%
    04:00 +7°C° 0 mm 2 mps 771 mmHg 78%
    05:00 +7°C° 0 mm 2 mps 771 mmHg 81%
    06:00 +6°C° 0 mm 2 mps 772 mmHg 83%
    07:00 +8°C° 0 mm 3 mps 772 mmHg 77%
    08:00 +9°C° 0 mm 3 mps 772 mmHg 72%
    09:00 +11°C° 0 mm 3 mps 773 mmHg 67%
    10:00 +12°C° 0 mm 3 mps 773 mmHg 61%
    11:00 +13°C° 0 mm 3 mps 773 mmHg 55%
    12:00 +16°C° 0 mm 2 mps 772 mmHg 49%
    13:00 +16°C° 0 mm 3 mps 772 mmHg 49%
    14:00 +16°C° 0 mm 3 mps 772 mmHg 49%
    15:00 +16°C° 0 mm 3 mps 772 mmHg 49%
    16:00 +14°C° 0 mm 2 mps 772 mmHg 54%
    17:00 +12°C° 0 mm 2 mps 773 mmHg 58%
    18:00 +10°C° 0 mm 2 mps 773 mmHg 63%
    19:00 +9°C° 0 mm 2 mps 773 mmHg 65%
    20:00 +9°C° 0 mm 2 mps 773 mmHg 68%
    21:00 +8°C° 0 mm 2 mps 773 mmHg 70%
    22:00 +8°C° 0 mm 2 mps 773 mmHg 72%
    23:00 +8°C° 0 mm 1 mps 773 mmHg 74%

    21 October, Sunday

    Time Temperature Precipitation Wind Pressure Humidity
    00:00 +8°C° 0 mm 1 mps 773 mmHg 76%
    01:00 +8°C° 0 mm 1 mps 773 mmHg 77%
    02:00 +7°C° 0 mm 1 mps 772 mmHg 78%
    03:00 +7°C° 0 mm 1 mps 772 mmHg 79%
    04:00 +7°C° 0 mm 1 mps 772 mmHg 79%
    05:00 +7°C° 0 mm 1 mps 772 mmHg 79%
    06:00 +7°C° 0 mm 1 mps 772 mmHg 79%
    07:00 +9°C° 0 mm 1 mps 772 mmHg 72%
    08:00 +10°C° 0 mm 1 mps 772 mmHg 64%
    09:00 +12°C° 0 mm 1 mps 772 mmHg 57%
    10:00 +14°C° 0 mm 1 mps 771 mmHg 52%
    11:00 +15°C° 0 mm 1 mps 771 mmHg 47%
    12:00 +18°C° 0 mm 1 mps 771 mmHg 43%
    13:00 +18°C° 0 mm 1 mps 770 mmHg 43%
    14:00 +18°C° 0 mm 1 mps 770 mmHg 44%
    15:00 +18°C° 0 mm 1 mps 769 mmHg 45%
    16:00 +15°C° 0 mm 1 mps 769 mmHg 51%
    17:00 +13°C° 0 mm 1 mps 769 mmHg 56%
    18:00 +11°C° 0 mm 1 mps 770 mmHg 61%
    19:00 +11°C° 0 mm 1 mps 770 mmHg 64%
    20:00 +10°C° 0 mm 1 mps 770 mmHg 67%
    21:00 +10°C° 0 mm 1 mps 770 mmHg 70%
    22:00 +10°C° 0 mm 1 mps 770 mmHg 73%
    23:00 +10°C° 0 mm 1 mps 770 mmHg 76%

    22 October, Monday

    Time Temperature Precipitation Wind Pressure Humidity
    00:00 +9°C° 0 mm 1 mps 771 mmHg 79%
    01:00 +9°C° 0 mm 2 mps 771 mmHg 80%
    02:00 +10°C° 0 mm 2 mps 771 mmHg 81%
    03:00 +10°C° 0 mm 2 mps 771 mmHg 82%
    04:00 +11°C° 0 mm 3 mps 771 mmHg 83%
    05:00 +11°C° 0 mm 3 mps 772 mmHg 84%
    06:00 +11°C° 0 mm 4 mps 772 mmHg 84%
    07:00 +11°C° 0 mm 4 mps 773 mmHg 80%
    08:00 +12°C° 0 mm 5 mps 773 mmHg 75%
    09:00 +12°C° 0 mm 5 mps 773 mmHg 70%
    10:00 +13°C° 0 mm 5 mps 773 mmHg 66%
    11:00 +13°C° 0 mm 5 mps 774 mmHg 62%
    12:00 +14°C° 0 mm 5 mps 774 mmHg 58%
    13:00 +13°C° 0 mm 5 mps 773 mmHg 59%
    14:00 +13°C° 0 mm 5 mps 773 mmHg 59%
    15:00 +13°C° 0 mm 5 mps 773 mmHg 59%
    16:00 +12°C° 0 mm 4 mps 773 mmHg 61%
    17:00 +11°C° 0 mm 3 mps 774 mmHg 63%
    18:00 +10°C° 0 mm 3 mps 774 mmHg 65%
    19:00 +10°C° 0 mm 3 mps 774 mmHg 67%
    20:00 +10°C° 0 mm 2 mps 774 mmHg 68%
    21:00 +10°C° 0 mm 2 mps 774 mmHg 69%
    22:00 +10°C° 0 mm 2 mps 774 mmHg 71%
    23:00 +10°C° 0 mm 2 mps 773 mmHg 73%
    Show more